CZ-4 DEB

Satellite information

Favourite Embed

Satellite Type and Status

DEBRISIN ORBIT

Key statistics

Satellite CZ-4 DEB at a glance.

Uptime

12726

Days in orbit

Revolutions

≈ 14.3

Per day

Orbit

SSO

Sun Synchronous Orbit

Inclination

98.5

Latest

Satellite identification and parameters

Extended collection of information and parameters for CZ-4 DEB.

Object identification

Identified? True

Debris? True

Object name: CZ-4 DEB

International designator: 1990-081CG

Object number (NORAD): 20974

Object ID (CCSDS): 20974

Country: PEOPLES REPUBLIC OF CHINA (PRC)

Current information (Y/N): Y

RCS size: SMALL

Orbital parameters

Period: 100.47 minutes

Inclination: 98.5458 deg

SMA: 7158.96 km

Apoapsis: 789.875 km

Periapsis: 771.774 km

RAAN: 185.0525 deg

Eccentricy: 0.0012642

Argument of periapsis: 285.5341 deg

Mean anomaly: 228.5207 deg

Mean motion: 14.33269631 rev/day

Mean motion (dot): 0.00001137 rev/day2

B* drag term: 0.00042861 1/REarth

Two-line elements (TLE)

Creation date: July 6, 2025, 6:05 p.m.

Reference frame: TEME

Reference center: EARTH

Epoch: July 6, 2025, 11:08 a.m. UTC

TLE line 0: 0 CZ-4 DEB

TLE line 1: 1 20974U 90081CG 25187.46423437 .00001137 00000-0 42861-3 0 9992

TLE line 2: 2 20974 98.5458 185.0525 0012642 285.5341 228.5207 14.33269631800206

Live tracking on map

Real-time ground track for satellite CZ-4 DEB.

In-orbit conjunctions

A list of the most updated potential collisions computed for object CZ-4 DEB.

Target Orbit TCA Probability of collision Miss distance Type
CZ-6A DEB LEO 2025-02-20 17:54:52 0.003018312 200.0 (m) DEBRIS
SL-8 R/B LEO 2024-09-20 18:37:02 0.000244301 477.0 (m) ROCKET BODY

Associated space launch

Chinese polar orbiting meteorological satellite

CZ-4 DEB was lifted into orbit during the mission ‘Long March 4A | Feng Yun 1B’, on board a Long March 4A space rocket.

The launch took place on Sept. 3, 1990, 12:53 a.m. from Launch Complex 7.

For more information about the launch, click the button.

Launch to space Long March 4A | Feng Yun 1B
Long March 4A | Feng Yun 1B

Agency: N/A

Status: Launch Successful

Launch date: Sept. 3, 1990, 12:53 a.m. UTC

Rocket: Long March 4A

Launch pad: Launch Complex 7

Location: Taiyuan Satellite Launch Center, People's Republic of China

...

Latest news about this satellite

There are no fresh news available about this satellite. Check back as we update our databases every day.


Newsletter sign-up

Weekly statistics, charts and insights to help you stay on top of the space industry.